99P/Kowal 1 (2022)

Japanese version
Home page
Updated on May 31, 2021

---------------------------------------------------------------------

* Profile

* Pictures

* Orbital Elements

Epoch 2022 Apr. 11.0 TT = JDT 2459680.5
T 2022 Apr. 12.63827 TT                                 Rudenko
q   4.7061112            (2000.0)            P               Q
n   0.06532600     Peri.  174.93248     -0.92015282     +0.38993384
a   6.1058390      Node    28.10162     -0.36185507     -0.81204040
e   0.2292441      Incl.    4.33963     -0.14959848     -0.43421422
P  15.1
From 965 observations 1977 Apr. 24-2021 May 1, mean residual 0".9.

* Finding Charts

* Magnitudes Graph

        m1 = 0.7 + 5 log d + 20.0 log r

---------------------------------------------------------------------

The orbital elements are published on M.P.E.C. 2021-J28.
The charts are made with StellaNavigator Ver.10 (AstroArts).
The magnitudes graphs are made with Comet for Windows.

---------------------------------------------------------------------

Copyright(C) Seiichi Yoshida (comet@aerith.net). All rights reserved.